Frankfort, KY

6:54 PM EST on February 08, 2016 (GMT -0500)
Capital City

Weather History for KFFT - July, 2012

Change the Weather History Date:

Thursday, July 26, 2012

  Actual Average Record
Temperature  
Mean Temperature 83 °F 76 °F  
Max Temperature 96 °F 87 °F 100 °F (1934)
Min Temperature 70 °F 66 °F 50 °F (1911)
Degree Days  
Heating Degree Days 0 0  
Month to date heating degree days 0 0  
Since 1 June heating degree days 14 10  
Since 1 July heating degree days 0 0  
Cooling Degree Days 18 11  
Month to date cooling degree days 421 286  
Year to date cooling degree days 833 621  
Since 1 June cooling degree days 652 522  
Growing Degree Days 34 (Base 50)    
Moisture  
Dew Point 71 °F    
Average Humidity 71    
Maximum Humidity 93    
Minimum Humidity 48    
Precipitation  
Precipitation 1.43 in 0.14 in 1.85 in (1938)
Month to date precipitation 3.83 3.73  
Year to date precipitation 22.59 27.29  
Sea Level Pressure  
Sea Level Pressure 29.79 in    
Wind  
Wind Speed 9 mph (SW)    
Max Wind Speed 32 mph    
Max Gust Speed 51 mph    
Visibility 8 miles    
Events Rain , Thunderstorm    
T = Trace of Precipitation, MM = Missing Value Source: NWS Daily Summary

Daily Weather History Graph

Daily Weather History Graph

Search for Another Location

Airport or City:

Trip Planner

Search our weather history database for the weather conditions in past years. The results will help you decide how hot, cold, wet, or windy it might be!

Date:

Astronomy

Jul. 26, 2012 Rise Set
Actual Time 6:37 AM EDT 8:54 PM EDT
Civil Twilight 6:07 AM EDT 9:23 PM EDT
Nautical Twilight 5:31 AM EDT 10:00 PM EDT
Astronomical Twilight 4:50 AM EDT 10:40 PM EDT
Moon 2:41 PM EDT (7/26) 12:27 AM EDT (7/26)
Length of Visible Light 15h 16m
Length of Day
14h 16m
First Quarter, 53% of the Moon is Illuminated
Jul 26
First Quarter
Aug 1
Full
Aug 9
Last Quarter
Aug 17
New
Aug 24
First Quarter

Hourly Weather History & Observations

Time (EDT) Temp. Heat Index Dew Point Humidity Pressure Visibility Wind Dir Wind Speed Gust Speed Precip Events Conditions
12:53 AM 82.9 °F 88.0 °F 72.0 °F 69% 29.80 in 10.0 mi SW 10.4 mph - N/A   Clear
1:53 AM 82.0 °F 86.7 °F 72.0 °F 71% 29.78 in 10.0 mi SW 10.4 mph - N/A   Clear
2:53 AM 81.0 °F 84.9 °F 71.1 °F 72% 29.78 in 10.0 mi SW 10.4 mph - N/A   Clear
3:53 AM 79.0 °F - 71.1 °F 77% 29.79 in 10.0 mi SSW 8.1 mph - N/A   Clear
4:53 AM 78.1 °F - 71.1 °F 79% 29.80 in 10.0 mi SSW 8.1 mph - N/A   Clear
5:53 AM 78.1 °F - 71.1 °F 79% 29.80 in 10.0 mi SSW 10.4 mph - N/A   Clear
6:53 AM 78.1 °F - 71.1 °F 79% 29.80 in 10.0 mi SSW 9.2 mph - N/A   Clear
7:53 AM 80.1 °F 83.6 °F 71.1 °F 74% 29.81 in 10.0 mi SW 15.0 mph 20.7 mph N/A   Clear
8:53 AM 82.0 °F 86.7 °F 72.0 °F 71% 29.81 in 10.0 mi SW 15.0 mph - N/A   Clear
9:53 AM 84.9 °F 90.7 °F 72.0 °F 65% 29.81 in 10.0 mi SW 16.1 mph 26.5 mph N/A   Clear
10:53 AM 88.0 °F 94.7 °F 72.0 °F 59% 29.80 in 10.0 mi SW 16.1 mph 24.2 mph N/A   Clear
11:53 AM 91.0 °F 99.3 °F 73.0 °F 55% 29.80 in 10.0 mi WSW 15.0 mph 21.9 mph N/A   Clear
12:53 PM 91.9 °F 100.7 °F 73.0 °F 54% 29.80 in 10.0 mi Variable 6.9 mph 24.2 mph N/A   Partly Cloudy
1:53 PM 93.9 °F 102.1 °F 72.0 °F 49% 29.78 in 10.0 mi WSW 10.4 mph 20.7 mph N/A   Clear
2:53 PM 96.1 °F 105.6 °F 73.0 °F 47% 29.76 in 10.0 mi SW 12.7 mph 21.9 mph N/A   Partly Cloudy
3:53 PM 96.1 °F 105.6 °F 73.0 °F 47% 29.73 in 10.0 mi SW 15.0 mph 23.0 mph N/A Thunderstorm Partly Cloudy
4:53 PM 84.9 °F 92.1 °F 73.9 °F 69% 29.71 in 10.0 mi Calm Calm - 0.00 in Thunderstorm Thunderstorm
5:23 PM 78.8 °F - 73.4 °F 83% 29.76 in 1.8 mi NW 21.9 mph 31.1 mph 0.11 in Rain , Thunderstorm Thunderstorms and Rain
5:31 PM 80.6 °F 83.9 °F 69.8 °F 70% 29.77 in 0.5 mi NNW 10.4 mph 39.1 mph 0.35 in Rain , Thunderstorm Heavy Thunderstorms and Rain
5:38 PM 78.8 °F - 71.6 °F 78% 29.79 in 1.2 mi West 17.3 mph 35.7 mph 0.42 in Rain , Thunderstorm Heavy Thunderstorms and Rain
5:41 PM 78.8 °F - 71.6 °F 78% 29.79 in 0.8 mi SSW 15.0 mph 50.6 mph 0.55 in Rain , Thunderstorm Heavy Thunderstorms and Rain
5:53 PM 79.0 °F - 68.0 °F 69% 29.75 in 2.0 mi Calm Calm - 0.66 in Rain , Thunderstorm Light Thunderstorms and Rain
6:00 PM 78.8 °F - 71.6 °F 78% 29.76 in 10.0 mi SW 12.7 mph 17.3 mph 0.00 in Thunderstorm Thunderstorm
6:36 PM 78.8 °F - 71.6 °F 78% 29.76 in 10.0 mi SW 10.4 mph - 0.00 in Thunderstorm Clear
6:53 PM 78.1 °F - 72.0 °F 81% 29.74 in 10.0 mi SW 15.0 mph 20.7 mph 0.00 in Thunderstorm Clear
7:23 PM 75.2 °F - 68.0 °F 78% 29.76 in 10.0 mi SSW 10.4 mph 19.6 mph N/A   Clear
7:53 PM 73.9 °F - 68.0 °F 82% 29.74 in 10.0 mi SSW 8.1 mph - N/A   Clear
8:53 PM 75.0 °F - 70.0 °F 84% 29.77 in 10.0 mi Calm Calm - N/A   Scattered Clouds
9:53 PM 73.9 °F - 71.1 °F 91% 29.79 in 10.0 mi SSW 3.5 mph - N/A   Clear
10:53 PM 75.9 °F - 72.0 °F 87% 29.78 in 10.0 mi SSW 5.8 mph - 0.00 in Rain Light Rain
11:07 PM 75.2 °F - 71.6 °F 89% 29.82 in 10.0 mi WSW 8.1 mph - 0.00 in Thunderstorm Thunderstorm
11:20 PM 73.4 °F - 71.6 °F 94% 29.85 in 1.5 mi West 27.6 mph 41.4 mph 0.18 in Rain , Thunderstorm Heavy Thunderstorms and Rain
11:23 PM 71.6 °F - 69.8 °F 94% 29.86 in 0.8 mi WSW 21.9 mph 41.4 mph 0.28 in Rain , Thunderstorm Heavy Thunderstorms and Rain
11:36 PM 71.6 °F - 69.8 °F 94% 29.86 in 1.0 mi West 5.8 mph 20.7 mph 0.66 in Rain , Thunderstorm Heavy Thunderstorms and Rain
11:41 PM 71.6 °F - 69.8 °F 94% 29.86 in 2.0 mi SSW 3.5 mph - 0.67 in Rain , Thunderstorm Heavy Thunderstorms and Rain
11:45 PM 71.6 °F - 69.8 °F 94% 29.86 in 4.0 mi SE 4.6 mph - 0.68 in Rain , Thunderstorm Light Thunderstorms and Rain
11:53 PM 71.1 °F - 69.1 °F 93% 29.82 in 10.0 mi NE 4.6 mph - 0.68 in Rain , Thunderstorm Light Thunderstorms and Rain